Location: Coed Ely
(51.5661°N, 3.4150°W)
Time: 02:27:35
(UTC+00:00)

Helios 1A Rocket - Pass Details

Date: 28 January 2021
Orbit: 562 x 587 km, 98.3° (Epoch: 28 February)

Event Time Altitude Azimuth Distance (km) Brightness Sun altitude
Rises 19:01:33 0° 167° (SSE) 2,804 6.3 -19.4°
Reaches altitude 10° 19:03:42 10° 169° (S) 1,909 5.5 -19.7°
Maximum altitude 19:07:50 78° 255° (WSW) 607 3.0 -20.3°
Drops below altitude 10° 19:12:01 10° 343° (NNW) 1,920 5.7 -21.0°
Sets 19:14:11 0° 345° (NNW) 2,823 6.6 -21.3°
